RH
46 44 43 42 42 41 41 41 40 40 39 40 41 42 42 43 44 45 47 48 49 49 49 49 49 49 49 49 49 50 50 51 52 53 53 53 53 51 48 45 41 37 35 33 33 33 34 34 34 35 35 35 36 37 38 38 39 39 38 39 41 44 46 47 48 48 48 49 49 48 47 48 49 50 51 50 50 49 49 49 50 50 50 50 49 48
42 41 39 38 37 36 36 36 36 35 35 35 36 37 37 38 39 41 43 44 45 45 44 43 42 42 42 42 43 45 47 48 50 51 50 49 47 44 39 36 34 32 31 31 31 32 33 34 34 35 35 35 36 37 38 38 39 39 39 41 42 44 45 47 48 48 49 49 50 50 50 50 50 50 50 50 50 49 49 47 45 45 45 44 44 43
37 36 35 34 33 33 33 32 32 33 33 32 32 33 33 33 34 35 37 37 38 38 38 38 38 38 39 41 42 44 45 46 46 46 44 41 38 35 32 31 31 31 31 31 31 32 33 34 34 35 36 36 36 37 38 38 38 38 38 39 41 43 46 48 49 49 50 51 52 52 52 52 51 50 50 51 51 50 47 44 42 41 41 41 41 41
34 32 32 31 31 31 31 30 31 31 31 30 30 30 30 30 31 31 33 34 34 35 36 37 38 39 40 40 41 42 42 42 41 39 37 34 31 30 29 29 29 30 31 31 32 33 34 35 35 36 36 37 37 37 38 38 39 38 37 38 40 43 45 47 49 49 50 51 52 53 53 53 52 51 51 52 52 51 48 45 43 42 42 43 43 44
31 31 31 30 30 30 29 29 29 28 28 27 27 27 27 28 29 30 32 33 34 35 36 36 37 38 38 38 38 37 37 35 34 32 31 30 28 28 28 28 29 30 31 32 33 35 35 36 37 37 37 37 38 39 40 41 41 41 39 39 39 41 42 44 45 46 47 48 50 50 51 51 51 51 52 53 53 53 51 47 45 45 46 46 47 49
30 30 30 30 30 29 28 27 26 25 24 25 25 26 27 28 29 30 31 33 34 34 35 35 34 34 34 33 33 32 31 30 29 29 29 29 29 29 29 29 29 30 32 34 35 36 37 37 37 38 38 38 39 41 43 44 44 44 43 42 41 41 40 41 41 42 43 44 45 45 46 47 48 50 52 53 53 52 50 48 48 49 49 50 52 53
30 30 29 29 28 26 25 24 23 23 24 25 25 26 27 28 29 29 30 30 31 31 32 32 32 31 30 29 28 28 27 27 27 28 29 29 30 30 30 30 31 33 34 35 36 37 38 38 38 38 38 39 41 42 44 45 45 45 44 43 42 41 41 41 41 42 43 43 43 44 45 46 48 49 51 52 52 52 50 51 52 53 54 55 57 58
29 29 28 26 25 23 22 21 21 22 24 25 26 26 26 27 27 28 28 27 28 28 28 29 29 29 28 27 27 26 26 27 28 29 29 30 31 31 32 32 33 34 35 35 36 37 38 38 38 38 38 40 41 42 43 44 44 44 43 43 42 42 42 43 43 44 44 44 45 46 47 48 49 50 51 52 53 53 53 54 55 57 59 60 62 63
28 27 25 24 22 21 20 20 20 22 24 25 26 26 26 26 26 26 26 26 26 26 27 27 27 28 28 28 28 27 27 28 29 30 31 32 33 34 35 35 34 34 34 33 35 36 38 38 39 39 40 41 42 42 43 43 43 43 43 43 43 44 44 44 45 45 46 47 48 49 49 51 53 53 54 54 54 55 56 57 59 61 63 63 64 65
26 24 23 22 21 20 20 19 20 21 23 25 26 26 26 26 26 25 25 25 26 26 26 27 27 27 27 28 28 29 29 30 31 32 34 35 35 36 36 35 34 33 33 34 35 37 39 40 41 41 42 43 43 43 43 44 44 43 44 44 45 45 45 46 46 47 48 48 49 50 52 54 55 55 55 55 56 57 58 61 62 63 63 63 63 64
24 24 23 21 21 21 21 21 21 22 23 24 25 26 26 26 25 25 25 25 26 26 26 27 27 27 27 28 29 31 31 32 33 34 35 35 35 35 34 34 34 33 34 35 37 40 41 42 43 43 43 44 44 43 42 42 42 42 44 45 46 46 47 47 48 48 48 49 50 51 52 53 54 54 55 56 56 57 59 61 61 61 61 61 61 61
24 24 23 23 22 22 23 23 23 23 24 24 25 25 25 25 26 26 26 26 26 26 27 27 28 29 30 30 31 32 33 34 35 35 35 34 34 33 33 34 34 35 35 37 40 42 43 43 43 43 43 43 42 41 41 41 41 42 43 45 47 48 48 49 49 49 49 50 51 51 52 53 53 54 55 55 57 58 59 59 59 59 59 59 59 58
25 25 24 24 24 24 24 24 24 24 24 24 25 25 25 26 26 27 27 27 27 27 28 28 29 30 31 32 33 34 35 35 35 35 34 34 33 33 34 35 35 36 38 39 41 42 43 43 42 42 41 41 40 40 40 40 41 42 44 46 48 48 49 49 50 50 51 51 51 52 52 52 52 53 54 54 55 55 56 56 56 56 56 56 56 56
25 25 25 24 24 24 24 24 24 24 25 25 25 26 26 26 27 27 27 27 28 28 29 29 30 31 33 34 35 36 36 36 35 34 34 33 33 34 35 36 37 39 40 42 42 42 42 42 41 40 40 40 39 39 39 39 40 42 44 46 47 48 49 50 50 51 51 51 51 51 51 51 51 51 51 52 51 52 52 52 52 52 53 53 53 53
25 25 25 24 24 24 24 24 24 25 25 25 26 26 27 27 27 27 28 28 29 29 30 31 32 33 34 35 36 36 36 36 35 34 33 33 34 35 37 38 39 41 41 42 42 41 40 40 39 39 38 38 38 38 38 38 40 42 44 46 47 48 49 49 50 50 50 50 50 50 49 49 49 49 49 49 49 49 49 49 49 49 49 49 49 49
25 25 24 24 24 24 24 25 25 25 25 26 26 26 27 27 27 28 29 30 30 31 32 33 33 34 34 35 36 36 36 36 35 35 34 33 34 36 38 39 40 41 40 40 39 38 38 37 37 37 37 37 36 35 35 37 39 41 43 45 47 48 48 49 49 49 49 49 48 48 48 48 48 47 47 47 47 47 47 46 46 46 46 46 47 47
25 24 24 24 24 24 25 25 25 26 26 25 25 26 27 27 28 29 30 31 32 33 34 35 35 35 35 35 36 36 36 36 36 35 35 34 35 36 39 40 40 39 38 37 37 36 36 36 36 35 35 34 34 34 34 37 40 42 45 46 47 48 48 48 48 48 48 48 48 48 48 47 47 47 47 47 47 46 46 47 47 47 47 48 48 49
24 24 24 24 24 25 25 25 25 25 25 26 26 27 27 28 29 30 31 32 33 34 35 36 37 37 37 37 36 35 36 37 37 36 36 35 36 37 39 39 39 37 36 36 35 35 35 35 35 34 34 33 33 34 36 39 42 44 46 46 47 48 48 48 48 48 48 48 48 48 48 48 48 48 49 49 49 49 50 50 51 51 52 53 53 54
24 24 24 24 25 25 25 25 25 25 26 26 27 27 28 29 30 30 31 32 33 35 36 37 37 38 38 37 36 35 36 37 38 38 37 36 36 37 38 37 37 36 35 34 35 35 35 35 35 34 34 34 35 37 40 42 44 45 47 47 48 48 48 48 48 48 49 49 49 49 50 50 51 51 52 53 54 54 55 56 57 58 58 59 59 59
24 24 24 25 25 25 26 26 26 26 27 27 28 28 28 29 30 31 32 33 34 35 36 37 37 37 37 36 36 36 37 38 38 38 37 37 37 37 38 37 36 35 34 34 35 36 36 35 35 35 35 36 37 40 42 43 45 46 47 48 48 48 48 49 49 49 49 50 51 52 53 54 54 55 56 57 58 59 60 61 62 62 63 63 63 63
24 24 25 25 25 25 26 26 27 27 27 28 28 29 29 30 31 32 33 33 34 35 36 36 36 36 36 36 37 37 38 38 39 38 38 37 38 38 38 37 36 35 34 35 36 36 36 36 36 36 37 38 39 41 43 44 45 46 47 48 48 48 49 49 50 50 51 52 53 54 55 56 57 58 59 60 60 61 62 62 63 63 64 64 64 64
24 24 24 24 25 25 26 26 27 27 28 28 29 29 30 31 32 33 34 35 35 36 36 35 36 36 36 37 37 38 39 39 39 39 39 40 40 40 37 36 36 36 36 36 36 36 36 36 36 37 38 39 40 42 43 44 45 46 47 48 49 49 50 50 51 51 52 53 54 55 56 57 58 58 59 59 60 60 60 61 61 61 62 62 62 63
23 24 24 24 24 24 25 26 27 28 28 29 29 30 31 32 33 34 35 36 36 36 35 35 35 36 36 36 37 37 38 38 39 40 41 42 41 39 36 36 36 37 38 38 38 37 37 37 37 38 39 40 41 42 43 44 45 47 48 49 50 50 51 51 52 52 52 53 54 55 56 57 57 58 58 58 58 59 59 59 59 59 59 59 60 60
21 21 22 22 22 22 22 24 26 27 29 30 30 31 32 33 35 35 35 35 35 35 34 35 35 35 36 35 35 35 37 38 39 41 42 42 41 38 36 37 38 39 40 40 39 39 38 38 38 39 39 40 41 43 44 45 47 48 49 50 51 51 52 52 52 53 53 54 56 57 58 59 60 60 60 60 60 59 59 59 59 59 59 59 59 59
17 17 17 18 19 20 21 23 25 27 30 31 32 32 33 34 35 35 34 34 34 34 34 35 35 34 34 33 33 33 36 38 40 42 41 41 39 37 37 38 40 41 41 41 41 40 40 39 38 39 40 41 43 45 46 48 49 51 52 52 53 53 53 53 54 55 57 58 60 61 62 63 64 64 64 64 63 63 63 63 63 63 63 62 62 61
13 14 15 17 18 19 20 22 25 27 30 32 33 34 34 34 34 34 33 33 34 35 35 34 34 33 32 32 32 34 36 39 41 42 40 40 39 39 39 40 41 42 43 42 42 41 41 40 40 40 41 43 45 47 49 50 52 53 53 54 54 55 56 57 58 60 62 64 65 66 67 68 68 68 68 68 68 68 68 68 68 68 68 68 67 65
14 15 16 17 18 19 20 22 24 27 30 32 34 35 35 34 34 34 34 35 35 36 35 35 34 33 33 33 34 35 36 39 40 41 39 39 40 42 42 41 41 42 44 44 44 43 43 42 42 42 43 44 46 49 51 52 53 54 54 56 57 58 60 62 63 65 67 68 69 70 70 71 71 71 71 71 71 71 72 72 72 73 73 72 71 70
15 15 17 17 18 19 20 22 24 27 30 33 35 36 35 35 35 35 36 37 37 36 36 37 37 37 37 37 37 37 37 39 39 39 38 39 41 43 43 42 42 43 44 45 44 43 43 43 44 44 44 46 48 50 51 53 54 55 57 59 61 63 65 66 68 69 70 71 71 72 72 73 73 73 73 74 74 74 74 75 75 75 76 75 75 74
15 16 17 17 18 19 21 23 26 29 31 34 35 36 36 36 36 37 38 38 37 37 38 40 41 41 41 39 38 37 37 38 39 39 39 41 42 44 43 43 43 44 45 45 45 43 43 44 44 45 46 47 48 50 52 54 56 58 61 63 66 67 68 69 69 70 71 71 72 73 74 75 75 76 76 77 77 77 77 77 77 77 77 76 76 75
16 17 17 18 19 21 23 26 29 31 33 34 35 36 36 37 37 38 38 38 38 39 41 42 43 42 42 40 39 39 38 38 39 40 41 43 44 44 44 44 45 45 47 48 48 47 45 44 44 45 46 47 49 51 54 57 59 62 65 67 68 69 69 69 69 70 70 71 73 73 75 76 77 77 78 78 79 79 79 79 78 78 78 77 76 76
17 17 18 19 22 24 27 30 32 33 34 34 35 36 37 38 38 38 37 37 38 39 42 43 44 43 43 42 41 41 40 40 41 42 43 44 44 44 44 45 46 47 49 51 52 52 51 47 44 44 46 48 51 54 57 61 64 66 68 68 68 68 68 68 68 69 70 71 72 73 74 75 76 77 78 78 79 79 80 80 79 79 79 78 77 77
17 18 19 22 25 28 31 33 34 34 34 35 36 37 37 38 38 38 38 38 39 40 41 42 42 42 42 42 42 42 41 41 42 44 45 45 44 44 44 45 47 48 50 52 54 55 55 51 48 45 47 50 54 58 62 64 66 67 68 67 67 67 67 68 69 70 71 72 72 73 74 75 75 76 76 77 78 78 79 79 80 80 80 79 79 78
18 19 22 26 29 32 33 35 35 34 34 36 37 37 38 38 39 39 40 39 40 40 41 41 41 41 41 41 41 41 41 42 43 44 44 44 44 44 45 46 47 49 51 53 54 54 54 53 51 50 51 55 59 63 65 66 67 67 67 67 67 68 69 70 71 72 73 73 74 74 74 75 75 75 76 77 78 78 79 79 79 79 80 80 80 80
19 21 24 28 31 33 35 35 35 34 35 37 38 38 39 39 40 40 41 41 40 41 41 42 42 42 41 41 41 41 41 42 43 43 43 43 44 44 45 47 48 50 51 52 52 53 53 53 53 55 57 61 64 66 67 66 66 66 66 67 69 70 72 73 74 74 75 75 75 75 74 75 75 75 75 76 77 79 79 79 79 79 79 79 79 79
20 22 26 30 32 34 35 35 34 34 35 37 38 39 40 41 41 41 42 41 41 41 41 42 42 42 42 42 42 41 41 41 42 42 42 43 44 46 47 48 49 50 51 51 51 52 53 54 56 59 63 65 66 66 66 66 66 66 68 70 72 74 75 76 76 76 76 76 75 75 74 74 74 74 75 76 77 79 80 80 80 79 79 78 78 79
21 23 27 30 33 34 35 34 34 34 35 37 39 40 41 42 42 43 43 42 42 42 41 42 41 41 41 40 41 41 41 40 40 41 41 43 45 47 48 49 49 49 50 50 51 52 54 57 60 63 65 65 65 65 65 66 67 68 70 72 74 75 77 77 77 77 77 77 76 75 75 74 74 74 74 75 76 78 79 80 80 79 79 78 77 77
22 24 27 31 33 34 35 34 33 33 35 37 39 41 42 42 43 43 43 42 42 42 41 40 40 39 38 38 39 39 40 40 40 41 41 43 45 47 48 48 48 48 49 50 52 54 58 62 64 65 65 64 64 64 65 67 69 70 72 73 74 75 76 77 77 77 78 77 77 76 75 75 74 73 73 74 74 75 76 77 78 78 77 77 76 75
23 25 28 31 33 34 35 34 33 34 35 37 39 41 42 43 43 43 43 42 42 41 40 39 39 38 37 37 38 38 39 40 40 41 41 43 44 46 47 46 46 46 48 51 55 58 62 65 66 65 63 63 63 65 67 70 71 73 73 73 74 74 75 75 76 76 77 77 77 77 76 75 74 73 72 72 71 71 72 73 74 74 75 74 74 73
25 28 29 31 33 34 35 35 35 35 37 39 40 42 43 43 43 43 43 42 42 41 40 39 38 37 37 37 38 39 40 40 40 41 42 43 44 44 45 45 45 47 49 54 58 63 66 67 66 64 63 64 65 68 70 72 73 74 73 73 73 73 74 74 75 75 76 76 76 75 75 74 73 71 70 69 68 68 68 69 70 71 72 72 72 72
28 30 31 32 34 35 35 36 37 37 38 40 41 42 43 43 43 43 42 42 41 40 39 39 38 38 38 38 39 39 40 40 40 40 41 42 42 43 44 45 47 49 54 59 63 66 67 65 64 63 63 66 69 70 72 73 73 73 73 73 73 73 73 74 74 74 74 73 73 72 72 71 69 68 67 66 66 66 66 67 68 69 70 71 71 71
29 31 33 33 34 35 35 37 37 39 40 41 43 44 44 44 43 42 42 41 40 40 38 38 38 38 39 40 40 40 40 39 39 40 40 41 41 42 43 46 50 54 59 64 66 66 65 63 63 64 67 70 72 72 73 73 73 73 73 74 74 73 73 73 73 72 71 71 70 70 69 68 66 65 64 63 63 64 64 66 67 68 69 70 70 70
31 32 34 34 34 35 36 37 39 40 41 43 44 45 46 45 44 43 42 41 40 39 38 38 38 39 40 40 40 40 39 38 38 39 40 40 41 42 45 49 55 60 65 67 67 66 63 63 65 68 71 73 74 74 74 74 75 75 75 74 73 72 70 70 70 70 69 69 68 68 67 66 65 63 62 61 61 62 62 64 66 67 68 69 69 69
32 33 34 34 35 36 37 38 40 41 42 44 46 47 47 46 44 43 42 41 40 38 38 38 39 40 41 41 40 39 38 37 38 38 38 39 41 43 47 53 59 64 68 68 67 65 64 66 68 71 74 75 75 76 77 77 77 76 75 74 72 71 70 69 68 68 67 67 67 67 66 66 65 63 61 60 60 61 62 63 65 66 68 68 68 68
32 33 34 35 35 36 37 39 40 42 43 44 46 47 47 45 44 43 42 40 39 39 39 40 40 40 39 38 38 37 36 36 36 37 38 39 42 46 50 56 62 66 68 68 67 66 67 69 72 73 75 76 77 78 78 77 75 74 73 72 71 71 70 69 68 66 66 65 66 66 66 66 65 64 62 60 60 60 61 63 64 65 67 67 67 68
33 34 34 35 36 37 38 40 41 42 43 45 46 46 46 45 44 43 42 41 40 40 40 41 40 39 37 36 36 35 35 35 35 36 38 41 45 48 52 58 62 66 68 68 68 69 71 73 74 75 75 76 77 77 76 74 73 71 71 71 71 70 70 68 67 66 65 64 65 65 66 67 66 65 63 61 60 60 61 62 64 65 66 67 67 67
33 34 34 35 36 38 39 40 41 43 44 46 46 46 46 45 44 43 42 41 41 41 41 41 40 38 36 35 35 35 35 35 36 38 40 44 48 51 54 58 61 64 67 69 70 72 74 75 75 76 76 75 75 74 73 71 71 70 70 70 70 69 68 67 66 65 65 64 65 65 66 67 67 67 66 63 62 60 60 62 64 65 67 67 67 67
32 33 35 36 37 39 40 41 42 43 45 45 46 46 47 46 44 43 42 42 42 42 42 41 39 37 35 34 34 35 35 36 38 41 44 48 51 53 56 58 61 63 66 69 72 74 75 76 76 76 76 74 73 72 70 69 70 70 71 70 69 68 67 66 65 65 64 64 65 65 66 67 68 68 68 65 63 61 60 61 63 65 67 68 68 68
33 34 35 37 38 40 41 42 43 44 45 45 46 47 47 46 44 43 42 42 42 42 41 40 38 37 35 34 34 35 36 39 41 44 47 50 53 55 57 59 61 63 66 69 73 75 75 75 75 75 74 73 72 71 69 69 69 70 71 70 69 68 67 66 65 64 64 64 65 65 66 68 69 70 69 67 65 63 61 61 62 64 67 68 68 68
34 35 36 38 39 41 42 43 44 44 45 45 46 46 46 45 44 43 43 42 42 42 41 39 37 35 33 33 34 35 38 41 45 48 50 52 54 56 58 61 62 63 65 68 71 73 74 74 73 73 72 71 70 69 68 68 69 70 71 70 69 68 67 66 65 64 63 64 64 66 67 69 70 71 71 70 67 64 61 61 62 64 66 68 69 69
34 36 37 38 40 42 43 43 44 44 44 45 46 46 45 44 43 42 42 42 42 41 41 39 37 34 32 32 34 36 40 44 47 50 51 52 54 56 59 62 64 65 66 67 69 70 71 71 71 71 70 69 68 68 68 69 69 69 70 70 69 69 68 66 65 64 63 63 64 66 68 70 71 71 71 70 68 65 62 61 61 63 66 68 69 69
34 36 38 39 40 42 42 43 43 44 45 45 45 45 44 43 42 41 41 42 42 41 40 38 35 33 31 32 35 39 43 47 49 51 51 52 54 56 59 63 66 68 69 69 69 69 69 69 68 68 67 68 68 69 70 70 70 70 70 69 69 68 67 66 64 63 63 63 65 66 69 70 72 72 72 71 69 67 64 62 62 62 65 68 69 70